When you browse on this site, cookies collect data to enhance your experience and personalize the content and advertising you see.
Visit our Privacy Policy to learn more. By continuing to use the site, you agree to this use of cookies and data.
  • En España
  • Lista de países
  • Para 7 días
  • Temperatura del agua
  • El tiempo en el mapa
  • Informadores
  • user-avatar
    Iniciar sesión

    Tiempo cada hora Triest

    Hoy, 6 Junio, Sábado

    Tiempo Temperatura Precipitaciones Viento Presión Humedad
    00:00 +17°C° 0.1 mm 3 mps 750 mmHg 96%
    01:00 +17°C° 0 mm 3 mps 751 mmHg 97%
    02:00 +17°C° 0.1 mm 3 mps 751 mmHg 97%
    03:00 +16°C° 0.1 mm 2 mps 751 mmHg 97%
    04:00 +16°C° 0.1 mm 2 mps 751 mmHg 97%
    05:00 +17°C° 0 mm 2 mps 751 mmHg 95%
    06:00 +19°C° 0 mm 2 mps 752 mmHg 93%
    07:00 +21°C° 0 mm 1 mps 752 mmHg 88%
    08:00 +23°C° 0 mm 1 mps 752 mmHg 78%
    09:00 +25°C° 0 mm 1 mps 752 mmHg 68%
    10:00 +27°C° 0 mm 1 mps 752 mmHg 57%
    11:00 +27°C° 0.2 mm 1 mps 752 mmHg 61%
    12:00 +26°C° 0.2 mm 2 mps 751 mmHg 65%
    13:00 +26°C° 0.2 mm 3 mps 751 mmHg 70%
    14:00 +25°C° 0.4 mm 3 mps 751 mmHg 72%
    15:00 +25°C° 0.4 mm 2 mps 751 mmHg 75%
    16:00 +24°C° 0.4 mm 2 mps 750 mmHg 77%
    17:00 +24°C° 0.1 mm 1 mps 750 mmHg 81%
    18:00 +23°C° 0.1 mm 1 mps 750 mmHg 84%
    19:00 +20°C° 0.1 mm 0 mps 750 mmHg 87%
    20:00 +21°C° 0 mm 1 mps 751 mmHg 89%
    21:00 +19°C° 0 mm 1 mps 751 mmHg 91%
    22:00 +18°C° 0 mm 1 mps 751 mmHg 93%
    23:00 +18°C° 0 mm 1 mps 751 mmHg 92%

    Mañana, 7 Junio, Domingo

    Tiempo Temperatura Precipitaciones Viento Presión Humedad
    00:00 +18°C° 0 mm 1 mps 752 mmHg 91%
    01:00 +17°C° 0 mm 2 mps 752 mmHg 90%
    02:00 +17°C° 0 mm 2 mps 752 mmHg 91%
    03:00 +16°C° 0 mm 2 mps 751 mmHg 91%
    04:00 +16°C° 0 mm 2 mps 751 mmHg 92%
    05:00 +17°C° 0 mm 2 mps 751 mmHg 89%
    06:00 +18°C° 0 mm 2 mps 752 mmHg 87%
    07:00 +20°C° 0 mm 3 mps 752 mmHg 84%
    08:00 +20°C° 0 mm 3 mps 752 mmHg 83%
    09:00 +21°C° 0 mm 3 mps 752 mmHg 81%
    10:00 +21°C° 0 mm 3 mps 752 mmHg 79%
    11:00 +22°C° 0.3 mm 3 mps 752 mmHg 79%
    12:00 +22°C° 0.3 mm 4 mps 751 mmHg 78%
    13:00 +23°C° 0.3 mm 4 mps 751 mmHg 77%
    14:00 +23°C° 0.5 mm 4 mps 751 mmHg 79%
    15:00 +23°C° 0.5 mm 4 mps 751 mmHg 81%
    16:00 +22°C° 0.5 mm 4 mps 751 mmHg 83%
    17:00 +21°C° 1.3 mm 4 mps 751 mmHg 87%
    18:00 +20°C° 1.3 mm 3 mps 751 mmHg 91%
    19:00 +19°C° 1.3 mm 3 mps 751 mmHg 95%
    20:00 +19°C° 1.5 mm 3 mps 751 mmHg 95%
    21:00 +18°C° 1.5 mm 3 mps 752 mmHg 96%
    22:00 +18°C° 1.5 mm 4 mps 752 mmHg 97%
    23:00 +18°C° 1.1 mm 3 mps 752 mmHg 97%

    Pasado mañana, 8 Junio, Lunes

    Tiempo Temperatura Precipitaciones Viento Presión Humedad
    00:00 +18°C° 1.1 mm 3 mps 752 mmHg 97%
    01:00 +18°C° 1.1 mm 3 mps 752 mmHg 97%
    02:00 +18°C° 0.9 mm 3 mps 752 mmHg 97%
    03:00 +18°C° 0.9 mm 3 mps 752 mmHg 97%
    04:00 +18°C° 0.9 mm 3 mps 752 mmHg 97%
    05:00 +18°C° 1.3 mm 2 mps 752 mmHg 96%
    06:00 +18°C° 1.3 mm 2 mps 752 mmHg 96%
    07:00 +19°C° 1.3 mm 2 mps 753 mmHg 95%
    08:00 +19°C° 1.7 mm 2 mps 753 mmHg 95%
    09:00 +19°C° 1.7 mm 2 mps 753 mmHg 95%
    10:00 +19°C° 1.7 mm 2 mps 753 mmHg 94%
    11:00 +20°C° 1.6 mm 3 mps 753 mmHg 93%
    12:00 +21°C° 1.6 mm 3 mps 753 mmHg 91%
    13:00 +22°C° 1.6 mm 3 mps 753 mmHg 89%
    14:00 +23°C° 1.7 mm 2 mps 753 mmHg 89%
    15:00 +23°C° 1.7 mm 2 mps 753 mmHg 89%
    16:00 +21°C° 1.7 mm 2 mps 753 mmHg 89%
    17:00 +21°C° 1.1 mm 2 mps 753 mmHg 91%
    18:00 +21°C° 1.1 mm 1 mps 753 mmHg 92%
    19:00 +20°C° 1.1 mm 1 mps 753 mmHg 94%
    20:00 +18°C° 0.7 mm 2 mps 754 mmHg 94%
    21:00 +18°C° 0.7 mm 2 mps 754 mmHg 95%
    22:00 +17°C° 0.7 mm 2 mps 754 mmHg 95%
    23:00 +17°C° 0.4 mm 2 mps 754 mmHg 95%

    9 Junio, Martes

    Tiempo Temperatura Precipitaciones Viento Presión Humedad
    00:00 +17°C° 0.4 mm 2 mps 754 mmHg 95%
    01:00 +18°C° 0.4 mm 1 mps 754 mmHg 95%
    02:00 +17°C° 0.9 mm 2 mps 754 mmHg 96%
    03:00 +17°C° 0.9 mm 2 mps 754 mmHg 96%
    04:00 +17°C° 0.9 mm 2 mps 754 mmHg 96%
    05:00 +17°C° 0.6 mm 2 mps 754 mmHg 96%
    06:00 +18°C° 0.6 mm 2 mps 754 mmHg 95%
    07:00 +18°C° 0.6 mm 2 mps 754 mmHg 95%
    08:00 +19°C° 0.5 mm 2 mps 755 mmHg 93%
    09:00 +19°C° 0.5 mm 2 mps 755 mmHg 92%
    10:00 +20°C° 0.5 mm 2 mps 755 mmHg 90%
    11:00 +20°C° 0.7 mm 2 mps 755 mmHg 88%
    12:00 +21°C° 0.7 mm 2 mps 755 mmHg 87%
    13:00 +21°C° 0.7 mm 2 mps 755 mmHg 85%
    14:00 +21°C° 0.6 mm 2 mps 754 mmHg 84%
    15:00 +23°C° 0.6 mm 2 mps 754 mmHg 83%
    16:00 +23°C° 0.6 mm 2 mps 754 mmHg 82%
    17:00 +21°C° 0.3 mm 2 mps 754 mmHg 84%
    18:00 +20°C° 0.3 mm 2 mps 754 mmHg 86%
    19:00 +19°C° 0.3 mm 2 mps 754 mmHg 88%
    20:00 +19°C° 0.5 mm 2 mps 754 mmHg 90%
    21:00 +18°C° 0.5 mm 2 mps 755 mmHg 92%
    22:00 +17°C° 0.5 mm 2 mps 755 mmHg 94%
    23:00 +17°C° 0.3 mm 2 mps 755 mmHg 94%

    10 Junio, Miércoles

    Tiempo Temperatura Precipitaciones Viento Presión Humedad
    00:00 +18°C° 0.3 mm 1 mps 754 mmHg 94%
    01:00 +18°C° 0.3 mm 1 mps 754 mmHg 94%
    02:00 +18°C° 0.4 mm 1 mps 754 mmHg 94%
    03:00 +18°C° 0.4 mm 1 mps 754 mmHg 94%
    04:00 +18°C° 0.4 mm 1 mps 753 mmHg 94%
    05:00 +18°C° 0.8 mm 1 mps 753 mmHg 94%
    06:00 +18°C° 0.8 mm 1 mps 754 mmHg 94%
    07:00 +19°C° 0.8 mm 1 mps 754 mmHg 94%
    08:00 +20°C° 0.6 mm 1 mps 754 mmHg 93%
    09:00 +20°C° 0.6 mm 1 mps 754 mmHg 92%
    10:00 +21°C° 0.6 mm 1 mps 754 mmHg 91%
    11:00 +22°C° 1.4 mm 1 mps 753 mmHg 91%
    12:00 +22°C° 1.4 mm 1 mps 753 mmHg 90%
    13:00 +23°C° 1.4 mm 1 mps 753 mmHg 89%
    14:00 +23°C° 1.4 mm 1 mps 753 mmHg 89%
    15:00 +23°C° 1.4 mm 1 mps 753 mmHg 89%
    16:00 +23°C° 1.4 mm 1 mps 752 mmHg 88%
    17:00 +22°C° 0.8 mm 1 mps 752 mmHg 90%
    18:00 +21°C° 0.8 mm 1 mps 752 mmHg 92%
    19:00 +20°C° 0.8 mm 1 mps 752 mmHg 94%
    20:00 +19°C° 0.6 mm 1 mps 753 mmHg 94%
    21:00 +17°C° 0.6 mm 2 mps 753 mmHg 95%
    22:00 +16°C° 0.6 mm 2 mps 753 mmHg 95%
    23:00 +16°C° 0.3 mm 2 mps 753 mmHg 95%

    11 Junio, Jueves

    Tiempo Temperatura Precipitaciones Viento Presión Humedad
    00:00 +16°C° 0.3 mm 2 mps 753 mmHg 95%
    01:00 +16°C° 0.3 mm 2 mps 752 mmHg 95%
    02:00 +15°C° 0.1 mm 2 mps 752 mmHg 95%
    03:00 +15°C° 0.1 mm 2 mps 752 mmHg 95%
    04:00 +15°C° 0.1 mm 2 mps 752 mmHg 95%
    05:00 +16°C° 0.2 mm 2 mps 752 mmHg 93%
    06:00 +18°C° 0.2 mm 2 mps 752 mmHg 91%
    07:00 +19°C° 0.2 mm 2 mps 752 mmHg 90%
    08:00 +20°C° 0.5 mm 2 mps 752 mmHg 87%
    09:00 +21°C° 0.5 mm 2 mps 752 mmHg 84%
    10:00 +22°C° 0.5 mm 3 mps 752 mmHg 82%
    11:00 +22°C° 0.8 mm 3 mps 751 mmHg 82%
    12:00 +22°C° 0.8 mm 3 mps 751 mmHg 83%
    13:00 +22°C° 0.8 mm 3 mps 750 mmHg 83%
    14:00 +22°C° 0.6 mm 3 mps 750 mmHg 82%
    15:00 +23°C° 0.6 mm 2 mps 750 mmHg 81%
    16:00 +23°C° 0.6 mm 2 mps 750 mmHg 80%
    17:00 +21°C° 0.1 mm 2 mps 750 mmHg 83%
    18:00 +21°C° 0.1 mm 1 mps 750 mmHg 86%
    19:00 +21°C° 0.1 mm 1 mps 750 mmHg 88%
    20:00 +19°C° 0 mm 1 mps 750 mmHg 90%
    21:00 +18°C° 0 mm 1 mps 750 mmHg 92%
    22:00 +16°C° 0 mm 1 mps 751 mmHg 94%
    23:00 +16°C° 0 mm 1 mps 750 mmHg 94%
    Mostrar más